ERS 1

Satellite information

Favourite Embed

Satellite Type and Status

PAYLOADIN ORBIT

Key statistics

Satellite ERS 1 at a glance.

Uptime

12568

Days in orbit

Revolutions

≈ 14.4

Per day

Orbit

SSO

Sun Synchronous Orbit

Inclination

98.8

Latest

Satellite identification and parameters

Extended collection of information and parameters for ERS 1.

Object identification

Identified? True

Debris? False

Object name: ERS 1

International designator: 1991-050A

Object number (NORAD): 21574

Object ID (CCSDS): 21574

Country: EUROPEAN SPACE AGENCY (ESA)

Current information (Y/N): Y

RCS size: LARGE

Orbital parameters

Period: 100.044 minutes

Inclination: 98.7906 deg

SMA: 7138.737 km

Apoapsis: 784.164 km

Periapsis: 737.041 km

RAAN: 357.3641 deg

Eccentricy: 0.00330049

Argument of periapsis: 101.2626 deg

Mean anomaly: 259.2273 deg

Mean motion: 14.39364103 rev/day

Mean motion (dot): 0.0000054 rev/day2

B* drag term: 0.00018724817 1/REarth

Two-line elements (TLE)

Creation date: Dec. 12, 2025, 10:14 a.m.

Reference frame: TEME

Reference center: EARTH

Epoch: Dec. 12, 2025, 7:40 a.m. UTC

TLE line 0: 0 ERS 1

TLE line 1: 1 21574U 91050A 25346.31982984 .00000540 00000-0 18725-3 0 9993

TLE line 2: 2 21574 98.7906 357.3641 0033005 101.2626 259.2273 14.39364103803160

Live tracking on map

Real-time ground track for satellite ERS 1.

In-orbit conjunctions

A list of the most updated potential collisions computed for object ERS 1.

Target Orbit TCA Probability of collision Miss distance Type
PEGASUS DEB LEO 2025-11-28 01:07:00 0.0002783721 146.0 (m) DEBRIS
METEOR 2-8 DEB LEO 2025-02-06 14:08:02 0.0001020678 899.0 (m) DEBRIS
CZ-2C DEB SSO 2025-01-30 07:36:19 0.002649417 299.0 (m) DEBRIS
DELTA 1 DEB SSO 2024-12-21 21:30:30 0.0001527946 109.0 (m) DEBRIS
FENGYUN 1C DEB SSO 2024-12-07 07:15:25 0.0004226136 302.0 (m) DEBRIS

Associated space launch

ERS (European Remote Sensing Satellite) are a family of multi-disciplinary Earth Observation Satellites.

ERS 1 was lifted into orbit during the mission ‘Ariane 40 | ERS-1’, on board a Ariane 40 space rocket.

The launch took place on July 17, 1991, 1:46 a.m. from Ariane Launch Area 2.

For more information about the launch, click the button.

Launch to space Ariane 40 | ERS-1
Ariane 40 | ERS-1

Agency: N/A

Status: Launch Successful

Launch date: July 17, 1991, 1:46 a.m. UTC

Rocket: Ariane 40

Launch pad: Ariane Launch Area 2

Location: Guiana Space Centre, French Guiana

...

Latest news about this satellite

There are no fresh news available about this satellite. Check back as we update our databases every day.


Newsletter sign-up

Weekly statistics, charts and insights to help you stay on top of the space industry.